Time,TemperatureF,DewpointF,PressureIn,WindDirection,WindDirectionDegrees,WindSpeedMPH,WindSpeedGustMPH,Humidity,HourlyPrecipIn,Conditions,Clouds,dailyrainin,SoftwareType,DateUTC
2013-01-01 00:03:00,31.0,31.0,-100.00,WNW,295,10.0,15.0,99,-99.99,,,-99.99,,2013-01-01 05:03:00,
2013-01-01 00:12:00,31.0,31.0,-100.00,WNW,285,9.0,12.0,99,-99.99,,,-99.99,,2013-01-01 05:12:00,
2013-01-01 00:22:00,31.0,31.0,-100.00,WNW,295,7.0,14.0,99,-99.99,,,-99.99,,2013-01-01 05:22:00,
2013-01-01 00:33:00,31.0,31.0,-100.00,WNW,285,7.0,13.0,99,-99.99,,,-99.99,,2013-01-01 05:33:00,
2013-01-01 00:42:00,31.0,31.0,-100.00,WNW,295,7.0,11.0,99,-99.99,,,-99.99,,2013-01-01 05:42:00,
2013-01-01 00:52:00,31.0,31.0,-100.00,WNW,295,7.0,11.0,99,-99.99,,,-99.99,,2013-01-01 05:52:00,
2013-01-01 01:02:00,31.0,31.0,-100.00,WNW,295,7.0,11.0,99,-99.99,,,-99.99,,2013-01-01 06:02:00,
2013-01-01 01:12:00,31.0,31.0,-100.00,West,280,9.0,14.0,99,-99.99,,,-99.99,,2013-01-01 06:12:00,
2013-01-01 01:22:00,31.0,31.0,-100.00,West,280,9.0,15.0,99,-99.99,,,-99.99,,2013-01-01 06:22:00,
2013-01-01 01:32:00,31.0,31.0,-100.00,WNW,285,9.0,12.0,99,-99.99,,,-99.99,,2013-01-01 06:32:00,
2013-01-01 01:42:00,31.0,31.0,-100.00,West,280,10.0,12.0,99,-99.99,,,-99.99,,2013-01-01 06:42:00,
2013-01-01 01:52:00,31.0,31.0,-100.00,West,270,10.0,14.0,99,-99.99,,,-99.99,,2013-01-01 06:52:00,
2013-01-01 02:02:00,31.0,31.0,-100.00,West,280,9.0,12.0,99,-99.99,,,-99.99,,2013-01-01 07:02:00,
2013-01-01 02:12:00,31.0,31.0,-100.00,West,280,6.0,14.0,99,-99.99,,,-99.99,,2013-01-01 07:12:00,
2013-01-01 02:22:00,31.0,31.0,-100.00,West,275,6.0,11.0,99,-99.99,,,-99.99,,2013-01-01 07:22:00,
2013-01-01 02:32:00,31.0,31.0,-100.00,WNW,290,6.0,11.0,99,-99.99,,,-99.99,,2013-01-01 07:32:00,
2013-01-01 02:42:00,31.0,31.0,-100.00,NW,310,6.0,11.0,99,-99.99,,,-99.99,,2013-01-01 07:42:00,
2013-01-01 02:52:00,31.0,31.0,-100.00,NW,325,7.0,10.0,99,-99.99,,,-99.99,,2013-01-01 07:52:00,
2013-01-01 03:02:00,31.0,31.0,-100.00,NW,320,6.0,12.0,99,-99.99,,,-99.99,,2013-01-01 08:02:00,
2013-01-01 03:12:00,31.0,31.0,-100.00,NW,320,6.0,8.0,99,-99.99,,,-99.99,,2013-01-01 08:12:00,
2013-01-01 03:22:00,31.0,31.0,-100.00,NW,325,6.0,10.0,99,-99.99,,,-99.99,,2013-01-01 08:22:00,
2013-01-01 03:32:00,31.0,31.0,-100.00,NNW,340,5.0,9.0,99,-99.99,,,-99.99,,2013-01-01 08:32:00,
2013-01-01 03:42:00,31.0,31.0,-100.00,North,0,7.0,11.0,99,-99.99,,,-99.99,,2013-01-01 08:42:00,
2013-01-01 03:53:00,30.0,30.0,-100.00,North,0,6.0,11.0,99,-99.99,,,-99.99,,2013-01-01 08:53:00,
2013-01-01 04:02:00,30.0,30.0,-100.00,North,0,5.0,11.0,97,-99.99,,,-99.99,,2013-01-01 09:02:00,
2013-01-01 04:12:00,30.0,29.0,-100.00,NNW,340,6.0,11.0,94,-99.99,,,-99.99,,2013-01-01 09:12:00,
2013-01-01 04:22:00,30.0,29.0,-100.00,NNW,340,6.0,9.0,94,-99.99,,,-99.99,,2013-01-01 09:22:00,
2013-01-01 04:32:00,31.0,29.0,-100.00,North,5,7.0,10.0,94,-99.99,,,-99.99,,2013-01-01 09:32:00,
2013-01-01 04:42:00,30.0,29.0,-100.00,North,0,7.0,12.0,93,-99.99,,,-99.99,,2013-01-01 09:42:00,
2013-01-01 04:52:00,30.0,28.0,-100.00,NW,320,5.0,9.0,92,-99.99,,,-99.99,,2013-01-01 09:52:00,
2013-01-01 05:02:00,30.0,28.0,-100.00,NW,325,5.0,9.0,92,-99.99,,,-99.99,,2013-01-01 10:02:00,
2013-01-01 05:12:00,30.0,28.0,-100.00,North,0,5.0,9.0,92,-99.99,,,-99.99,,2013-01-01 10:12:00,
2013-01-01 05:22:00,30.0,28.0,-100.00,North,350,4.0,9.0,92,-99.99,,,-99.99,,2013-01-01 10:22:00,
2013-01-01 05:33:00,30.0,28.0,-100.00,NNW,330,4.0,8.0,92,-99.99,,,-99.99,,2013-01-01 10:33:00,
2013-01-01 05:42:00,30.0,28.0,-100.00,North,0,5.0,11.0,92,-99.99,,,-99.99,,2013-01-01 10:42:00,
2013-01-01 05:52:00,30.0,28.0,-100.00,NNW,330,6.0,9.0,92,-99.99,,,-99.99,,2013-01-01 10:52:00,
2013-01-01 06:02:00,30.0,28.0,-100.00,NW,320,4.0,9.0,92,-99.99,,,-99.99,,2013-01-01 11:02:00,
2013-01-01 06:12:00,30.0,28.0,-100.00,North,0,5.0,9.0,92,-99.99,,,-99.99,,2013-01-01 11:12:00,
2013-01-01 06:23:00,30.0,28.0,-100.00,North,355,6.0,10.0,92,-99.99,,,-99.99,,2013-01-01 11:23:00,
2013-01-01 06:33:00,30.0,28.0,-100.00,North,355,4.0,9.0,92,-99.99,,,-99.99,,2013-01-01 11:33:00,
2013-01-01 06:42:00,30.0,28.0,-100.00,North,0,4.0,9.0,92,-99.99,,,-99.99,,2013-01-01 11:42:00,
2013-01-01 06:53:00,30.0,28.0,-100.00,North,0,6.0,11.0,92,-99.99,,,-99.99,,2013-01-01 11:53:00,
2013-01-01 07:03:00,30.0,28.0,-100.00,NW,325,6.0,9.0,92,-99.99,,,-99.99,,2013-01-01 12:03:00,
2013-01-01 07:12:00,30.0,28.0,-100.00,North,0,5.0,7.0,92,-99.99,,,-99.99,,2013-01-01 12:12:00,
2013-01-01 07:22:00,29.0,28.0,-100.00,North,10,7.0,9.0,94,-99.99,,,-99.99,,2013-01-01 12:22:00,
2013-01-01 07:33:00,29.0,28.0,-100.00,North,10,6.0,9.0,95,-99.99,,,-99.99,,2013-01-01 12:33:00,
2013-01-01 07:42:00,29.0,28.0,-100.00,NNE,25,7.0,11.0,96,-99.99,,,-99.99,,2013-01-01 12:42:00,
2013-01-01 07:52:00,28.0,28.0,-100.00,NNE,20,6.0,9.0,97,-99.99,,,-99.99,,2013-01-01 12:52:00,
2013-01-01 08:03:00,28.0,28.0,-100.00,NNE,20,6.0,10.0,98,-99.99,,,-99.99,,2013-01-01 13:03:00,
2013-01-01 08:12:00,28.0,28.0,-100.00,NNE,15,4.0,9.0,98,-99.99,,,-99.99,,2013-01-01 13:12:00,
2013-01-01 08:22:00,28.0,28.0,-100.00,NE,35,6.0,11.0,98,-99.99,,,-99.99,,2013-01-01 13:22:00,
2013-01-01 08:33:00,28.0,27.0,-100.00,NNE,25,6.0,11.0,97,-99.99,,,-99.99,,2013-01-01 13:33:00,
2013-01-01 08:42:00,27.0,27.0,-100.00,NE,40,4.0,11.0,96,-99.99,,,-99.99,,2013-01-01 13:42:00,
2013-01-01 08:52:00,27.0,26.0,-100.00,NNE,20,7.0,12.0,96,-99.99,,,-99.99,,2013-01-01 13:52:00,
2013-01-01 09:02:00,27.0,26.0,-100.00,NNE,30,7.0,12.0,95,-99.99,,,-99.99,,2013-01-01 14:02:00,
2013-01-01 09:12:00,27.0,26.0,-100.00,NE,35,7.0,12.0,94,-99.99,,,-99.99,,2013-01-01 14:12:00,
2013-01-01 09:22:00,27.0,26.0,-100.00,NNE,30,7.0,11.0,94,-99.99,,,-99.99,,2013-01-01 14:22:00,
2013-01-01 09:32:00,27.0,26.0,-100.00,North,10,8.0,13.0,94,-99.99,,,-99.99,,2013-01-01 14:32:00,
2013-01-01 09:42:00,27.0,26.0,-100.00,NNE,30,7.0,14.0,95,-99.99,,,-99.99,,2013-01-01 14:42:00,
2013-01-01 09:53:00,26.0,25.0,-100.00,NE,35,7.0,14.0,95,-99.99,,,-99.99,,2013-01-01 14:53:00,
2013-01-01 10:03:00,26.0,25.0,-100.00,NE,40,7.0,10.0,95,-99.99,,,-99.99,,2013-01-01 15:03:00,
2013-01-01 10:12:00,26.0,25.0,-100.00,NNE,20,7.0,10.0,95,-99.99,,,-99.99,,2013-01-01 15:12:00,
2013-01-01 10:22:00,26.0,25.0,-100.00,NNE,15,7.0,12.0,94,-99.99,,,-99.99,,2013-01-01 15:22:00,
2013-01-01 10:33:00,26.0,25.0,-100.00,NNE,15,7.0,12.0,94,-99.99,,,-99.99,,2013-01-01 15:33:00,
2013-01-01 10:42:00,26.0,24.0,-100.00,NNE,25,9.0,14.0,94,-99.99,,,-99.99,,2013-01-01 15:42:00,
2013-01-01 10:53:00,25.0,24.0,-100.00,NNE,15,8.0,11.0,94,-99.99,,,-99.99,,2013-01-01 15:53:00,
2013-01-01 11:02:00,25.0,24.0,-100.00,North,10,9.0,12.0,94,-99.99,,,-99.99,,2013-01-01 16:02:00,
2013-01-01 11:12:00,25.0,23.0,-100.00,NE,35,10.0,17.0,94,-99.99,,,-99.99,,2013-01-01 16:12:00,
2013-01-01 11:22:00,25.0,23.0,-100.00,NE,40,7.0,12.0,94,-99.99,,,-99.99,,2013-01-01 16:22:00,
2013-01-01 11:33:00,25.0,23.0,-100.00,NE,35,9.0,14.0,93,-99.99,,,-99.99,,2013-01-01 16:33:00,
2013-01-01 11:42:00,25.0,23.0,-100.00,NE,40,7.0,13.0,93,-99.99,,,-99.99,,2013-01-01 16:42:00,
2013-01-01 11:52:00,24.0,23.0,-100.00,NNE,30,7.0,13.0,93,-99.99,,,-99.99,,2013-01-01 16:52:00,
2013-01-01 12:02:00,24.0,23.0,-100.00,NNE,15,7.0,13.0,93,-99.99,,,-99.99,,2013-01-01 17:02:00,
2013-01-01 12:12:00,24.0,23.0,-100.00,NE,45,7.0,12.0,93,-99.99,,,-99.99,,2013-01-01 17:12:00,
2013-01-01 12:22:00,24.0,22.0,-100.00,NNE,25,7.0,13.0,93,-99.99,,,-99.99,,2013-01-01 17:22:00,
2013-01-01 12:33:00,24.0,22.0,-100.00,NE,40,5.0,14.0,92,-99.99,,,-99.99,,2013-01-01 17:33:00,
2013-01-01 12:43:00,24.0,22.0,-100.00,NE,35,7.0,11.0,92,-99.99,,,-99.99,,2013-01-01 17:43:00,
2013-01-01 12:52:00,24.0,22.0,-100.00,NE,35,6.0,11.0,92,-99.99,,,-99.99,,2013-01-01 17:52:00,
2013-01-01 13:03:00,24.0,22.0,-100.00,NNE,25,5.0,10.0,92,-99.99,,,-99.99,,2013-01-01 18:03:00,
2013-01-01 13:12:00,24.0,22.0,-100.00,North,0,6.0,9.0,91,-99.99,,,-99.99,,2013-01-01 18:12:00,
2013-01-01 13:22:00,24.0,22.0,-100.00,North,5,6.0,9.0,91,-99.99,,,-99.99,,2013-01-01 18:22:00,
2013-01-01 13:33:00,24.0,21.0,-100.00,NNE,25,7.0,10.0,91,-99.99,,,-99.99,,2013-01-01 18:33:00,
2013-01-01 13:42:00,23.0,21.0,-100.00,North,0,4.0,12.0,91,-99.99,,,-99.99,,2013-01-01 18:42:00,
2013-01-01 13:52:00,23.0,21.0,-100.00,North,0,7.0,12.0,92,-99.99,,,-99.99,,2013-01-01 18:52:00,
2013-01-01 14:02:00,23.0,21.0,-100.00,North,0,6.0,11.0,92,-99.99,,,-99.99,,2013-01-01 19:02:00,
2013-01-01 14:12:00,23.0,21.0,-100.00,North,0,6.0,9.0,92,-99.99,,,-99.99,,2013-01-01 19:12:00,
2013-01-01 14:22:00,23.0,21.0,-100.00,NNE,20,6.0,11.0,92,-99.99,,,-99.99,,2013-01-01 19:22:00,
2013-01-01 14:33:00,23.0,21.0,-100.00,NNW,340,7.0,11.0,91,-99.99,,,-99.99,,2013-01-01 19:33:00,
2013-01-01 14:42:00,23.0,20.0,-100.00,North,5,9.0,11.0,89,-99.99,,,-99.99,,2013-01-01 19:42:00,
2013-01-01 14:52:00,23.0,20.0,-100.00,North,5,8.0,11.0,87,-99.99,,,-99.99,,2013-01-01 19:52:00,
2013-01-01 15:02:00,23.0,20.0,-100.00,North,0,6.0,9.0,86,-99.99,,,-99.99,,2013-01-01 20:02:00,
2013-01-01 15:12:00,23.0,20.0,-100.00,North,0,5.0,12.0,86,-99.99,,,-99.99,,2013-01-01 20:12:00,
2013-01-01 15:23:00,23.0,20.0,-100.00,North,0,6.0,11.0,85,-99.99,,,-99.99,,2013-01-01 20:23:00,
2013-01-01 15:32:00,23.0,20.0,-100.00,NE,35,7.0,13.0,85,-99.99,,,-99.99,,2013-01-01 20:32:00,
2013-01-01 15:42:00,23.0,20.0,-100.00,North,5,4.0,12.0,85,-99.99,,,-99.99,,2013-01-01 20:42:00,
2013-01-01 15:52:00,23.0,19.0,-100.00,North,355,6.0,10.0,85,-99.99,,,-99.99,,2013-01-01 20:52:00,
2013-01-01 16:03:00,23.0,20.0,-100.00,North,0,6.0,11.0,85,-99.99,,,-99.99,,2013-01-01 21:03:00,
2013-01-01 16:12:00,23.0,20.0,-100.00,NNW,340,7.0,11.0,85,-99.99,,,-99.99,,2013-01-01 21:12:00,
2013-01-01 16:22:00,23.0,19.0,-100.00,NW,320,5.0,12.0,85,-99.99,,,-99.99,,2013-01-01 21:22:00,
2013-01-01 16:33:00,23.0,19.0,-100.00,North,0,5.0,11.0,84,-99.99,,,-99.99,,2013-01-01 21:33:00,
2013-01-01 16:42:00,23.0,19.0,-100.00,North,0,5.0,11.0,84,-99.99,,,-99.99,,2013-01-01 21:42:00,
2013-01-01 16:52:00,23.0,19.0,-100.00,North,0,5.0,9.0,84,-99.99,,,-99.99,,2013-01-01 21:52:00,
2013-01-01 17:03:00,23.0,19.0,-100.00,North,0,4.0,7.0,85,-99.99,,,-99.99,,2013-01-01 22:03:00,
2013-01-01 17:12:00,23.0,19.0,-100.00,NNW,345,4.0,9.0,84,-99.99,,,-99.99,,2013-01-01 22:12:00,
2013-01-01 17:22:00,23.0,19.0,-100.00,NNW,340,5.0,9.0,84,-99.99,,,-99.99,,2013-01-01 22:22:00,
2013-01-01 17:33:00,23.0,19.0,-100.00,North,0,4.0,7.0,84,-99.99,,,-99.99,,2013-01-01 22:33:00,
2013-01-01 17:42:00,22.0,19.0,-100.00,NNE,15,4.0,7.0,84,-99.99,,,-99.99,,2013-01-01 22:42:00,
2013-01-01 17:52:00,23.0,19.0,-100.00,North,0,3.0,7.0,84,-99.99,,,-99.99,,2013-01-01 22:52:00,
2013-01-01 18:03:00,22.0,19.0,-100.00,North,10,4.0,7.0,84,-99.99,,,-99.99,,2013-01-01 23:03:00,
2013-01-01 18:12:00,22.0,18.0,-100.00,North,0,4.0,9.0,84,-99.99,,,-99.99,,2013-01-01 23:12:00,
2013-01-01 18:22:00,22.0,18.0,-100.00,North,10,4.0,7.0,83,-99.99,,,-99.99,,2013-01-01 23:22:00,
2013-01-01 18:32:00,22.0,18.0,-100.00,NNW,345,4.0,6.0,83,-99.99,,,-99.99,,2013-01-01 23:32:00,
2013-01-01 18:42:00,23.0,19.0,-100.00,North,355,3.0,6.0,83,-99.99,,,-99.99,,2013-01-01 23:42:00,
2013-01-01 18:52:00,23.0,19.0,-100.00,North,0,2.0,7.0,83,-99.99,,,-99.99,,2013-01-01 23:52:00,
2013-01-01 19:03:00,23.0,19.0,-100.00,North,355,2.0,4.0,84,-99.99,,,-99.99,,2013-01-02 00:03:00,
2013-01-01 19:12:00,23.0,19.0,-100.00,North,10,4.0,6.0,83,-99.99,,,-99.99,,2013-01-02 00:12:00,
2013-01-01 19:22:00,23.0,19.0,-100.00,North,350,4.0,7.0,83,-99.99,,,-99.99,,2013-01-02 00:22:00,
2013-01-01 19:32:00,23.0,18.0,-100.00,North,0,2.0,9.0,83,-99.99,,,-99.99,,2013-01-02 00:32:00,
2013-01-01 19:42:00,23.0,18.0,-100.00,North,0,2.0,4.0,83,-99.99,,,-99.99,,2013-01-02 00:42:00,
2013-01-01 19:52:00,23.0,18.0,-100.00,North,0,3.0,6.0,81,-99.99,,,-99.99,,2013-01-02 00:52:00,
2013-01-01 20:02:00,23.0,18.0,-100.00,NNW,330,4.0,6.0,81,-99.99,,,-99.99,,2013-01-02 01:02:00,
2013-01-01 20:12:00,23.0,18.0,-100.00,North,0,3.0,5.0,81,-99.99,,,-99.99,,2013-01-02 01:12:00,
2013-01-01 20:22:00,23.0,18.0,-100.00,NW,310,2.0,5.0,81,-99.99,,,-99.99,,2013-01-02 01:22:00,
2013-01-01 20:32:00,23.0,18.0,-100.00,North,0,1.0,4.0,82,-99.99,,,-99.99,,2013-01-02 01:32:00,
2013-01-01 20:42:00,23.0,18.0,-100.00,North,5,2.0,4.0,82,-99.99,,,-99.99,,2013-01-02 01:42:00,
2013-01-01 20:52:00,23.0,18.0,-100.00,NW,310,2.0,4.0,82,-99.99,,,-99.99,,2013-01-02 01:52:00,
2013-01-01 21:02:00,23.0,18.0,-100.00,NW,320,4.0,6.0,82,-99.99,,,-99.99,,2013-01-02 02:02:00,
2013-01-01 21:12:00,23.0,18.0,-100.00,NW,310,4.0,7.0,82,-99.99,,,-99.99,,2013-01-02 02:12:00,
2013-01-01 21:22:00,23.0,19.0,-100.00,West,280,3.0,7.0,82,-99.99,,,-99.99,,2013-01-02 02:22:00,
2013-01-01 21:32:00,23.0,18.0,-100.00,WNW,300,4.0,9.0,82,-99.99,,,-99.99,,2013-01-02 02:32:00,
2013-01-01 21:42:00,23.0,19.0,-100.00,NNW,340,4.0,6.0,82,-99.99,,,-99.99,,2013-01-02 02:42:00,
2013-01-01 21:52:00,23.0,18.0,-100.00,NW,310,4.0,6.0,81,-99.99,,,-99.99,,2013-01-02 02:52:00,
2013-01-01 22:02:00,23.0,18.0,-100.00,West,270,4.0,6.0,81,-99.99,,,-99.99,,2013-01-02 03:02:00,
2013-01-01 22:12:00,23.0,18.0,-100.00,West,270,4.0,6.0,81,-99.99,,,-99.99,,2013-01-02 03:12:00,
2013-01-01 22:22:00,23.0,18.0,-100.00,WNW,285,4.0,9.0,83,-99.99,,,-99.99,,2013-01-02 03:22:00,
2013-01-01 22:32:00,23.0,18.0,-100.00,WNW,290,4.0,9.0,83,-99.99,,,-99.99,,2013-01-02 03:32:00,
2013-01-01 22:42:00,23.0,18.0,-100.00,West,280,6.0,9.0,83,-99.99,,,-99.99,,2013-01-02 03:42:00,
2013-01-01 22:53:00,23.0,18.0,-100.00,WNW,295,6.0,7.0,83,-99.99,,,-99.99,,2013-01-02 03:53:00,
2013-01-01 23:03:00,22.0,18.0,-100.00,West,275,6.0,9.0,83,-99.99,,,-99.99,,2013-01-02 04:03:00,
2013-01-01 23:12:00,22.0,18.0,-100.00,West,270,6.0,9.0,83,-99.99,,,-99.99,,2013-01-02 04:12:00,
2013-01-01 23:22:00,22.0,18.0,-100.00,WNW,285,6.0,7.0,83,-99.99,,,-99.99,,2013-01-02 04:22:00,
2013-01-01 23:32:00,22.0,18.0,-100.00,West,275,6.0,9.0,83,-99.99,,,-99.99,,2013-01-02 04:32:00,
2013-01-01 23:42:00,22.0,18.0,-100.00,West,275,4.0,10.0,83,-99.99,,,-99.99,,2013-01-02 04:42:00,
2013-01-01 23:52:00,22.0,18.0,-100.00,West,275,6.0,8.0,83,-99.99,,,-99.99,,2013-01-02 04:52:00,